Lid_Strength_Index
7 7 7 8 8 7 9 11 15 8 6 14 17 16 12 9 10 9 10 10 10 12 13 13 13 15 11 8 8 11 10 13 16 14 10 9 11 13 12 17 18 17 18 18
7 7 7 8 7 7 10 11 11 7 7 18 18 13 10 10 11 11 10 10 9 9 14 16 14 13 9 9 9 11 10 14 17 16 13 11 13 11 11 13 14 18 20 18
7 7 7 8 7 7 10 11 14 11 11 12 13 14 12 12 9 10 9 10 10 11 13 11 15 14 10 9 9 7 8 13 15 18 15 13 15 13 12 13 17 17 17 15
7 7 7 7 8 7 9 12 13 11 16 15 13 13 12 13 13 10 10 11 11 11 15 14 14 12 12 10 8 9 10 15 13 13 13 13 13 14 13 15 14 16 15 15
7 7 7 8 7 7 10 13 12 12 14 11 13 12 13 12 12 12 12 12 11 10 12 13 14 13 12 13 10 10 9 14 13 15 13 12 14 14 13 13 13 13 14 16
6 6 7 8 7 7 10 10 10 12 13 14 15 14 12 12 11 10 10 10 11 11 10 10 9 9 9 10 11 12 11 13 15 17 13 14 17 15 14 14 13 13 15 14
6 7 7 7 6 7 9 10 11 14 17 14 13 11 11 10 10 11 9 9 10 8 6 7 7 8 8 8 8 8 11 12 13 16 15 20 15 12 12 14 14 13 12 13
6 7 7 7 6 5 8 9 10 14 18 12 11 10 10 10 10 10 9 8 8 7 8 11 12 12 11 10 8 9 9 11 15 17 17 15 14 14 15 14 15 13 13 13
6 6 6 6 6 5 8 9 9 12 15 13 9 11 10 13 13 12 9 7 7 7 10 12 15 17 13 14 12 9 9 10 14 15 18 20 16 14 12 12 17 12 13 14
6 6 6 6 5 4 7 9 8 11 15 11 10 12 12 10 12 13 11 10 9 8 13 14 14 15 11 16 15 14 13 13 16 15 17 16 14 13 11 16 17 11 12 14
5 6 5 6 5 4 6 7 7 9 13 11 8 7 10 10 11 14 11 12 11 12 13 13 13 14 13 13 11 13 14 15 17 16 18 20 12 12 15 13 11 11 12 13
5 5 5 6 4 4 5 9 6 6 11 11 8 7 6 6 7 9 10 10 9 9 13 12 13 14 13 13 16 9 15 13 15 14 16 12 10 11 9 9 10 11 11 12
5 5 5 5 5 4 4 7 7 8 13 12 10 9 5 4 5 5 10 8 6 8 8 12 12 13 12 14 13 12 10 9 14 15 12 12 11 10 10 10 11 11 10 10
4 5 5 5 4 3 4 7 7 7 9 15 10 4 6 3 4 4 4 5 5 6 8 10 13 13 9 13 10 12 12 11 12 13 12 12 12 11 11 11 10 12 12 13
4 4 4 4 3 3 6 7 7 6 8 12 11 7 5 4 4 4 4 5 6 9 10 12 13 9 9 10 9 12 10 12 13 15 11 11 12 11 10 12 13 12 13 14
4 4 3 3 3 4 8 13 6 5 6 9 13 7 6 5 4 5 5 6 7 8 9 11 11 8 9 13 13 10 9 9 9 12 10 13 13 11 10 12 12 12 13 14
3 3 3 3 4 7 7 10 5 3 4 9 12 12 6 3 5 7 7 5 8 9 9 10 10 10 8 11 13 9 8 8 9 9 9 11 10 13 11 11 12 12 13 13
3 3 3 4 3 5 7 4 2 2 7 8 11 12 8 6 9 10 8 10 10 10 10 10 10 9 8 12 9 8 8 8 8 8 9 11 11 12 12 12 13 15 15 15
3 3 3 6 8 11 9 2 2 4 6 10 10 12 12 7 9 9 9 9 15 10 14 12 10 12 13 10 10 9 9 9 9 9 10 11 12 13 13 14 14 15 16 16
3 6 10 15 10 3 3 5 7 7 6 7 10 10 14 8 12 11 10 12 13 13 10 9 10 12 9 9 9 9 10 10 8 10 11 12 13 14 14 15 15 15 17 18
8 10 11 6 3 5 8 10 10 9 11 9 10 10 11 8 12 12 11 13 13 13 11 12 13 13 11 10 11 11 11 11 12 12 13 12 13 14 14 15 15 16 17 19
7 7 4 5 7 9 10 12 11 11 12 11 11 11 9 9 7 10 11 13 13 15 10 12 19 14 12 12 12 12 13 13 13 13 14 14 14 14 15 16 17 18 19 23
6 6 8 8 9 13 15 18 14 16 12 11 12 11 7 9 9 9 12 16 16 11 13 15 16 13 12 13 14 14 14 14 15 15 15 15 16 16 17 20 22 23 24 27
10 10 12 12 13 12 14 13 13 11 11 11 11 12 11 12 14 10 14 13 12 17 20 15 16 12 13 14 14 15 18 19 19 20 21 21 21 24 25 25 26 25 25 27
10 10 16 12 11 8 7 8 10 11 11 10 11 11 11 14 13 10 10 13 18 16 18 18 14 13 15 16 16 18 19 21 21 23 22 25 25 23 24 25 25 24 27 28
9 9 11 9 9 9 7 9 10 11 11 11 10 12 15 13 12 12 13 14 17 16 15 14 14 16 19 19 19 20 21 21 22 22 22 22 24 23 22 24 24 27 26 27
9 10 8 8 9 8 7 7 9 9 10 11 12 15 15 11 15 12 15 13 14 14 14 15 16 18 20 20 20 19 18 20 20 21 21 20 20 21 19 20 21 20 19 23